Hourly Weather Herāt

Today, 27 September, Sunday

Time Temperature Precipitation Wind Pressure Humidity
00:00 +14°C° 0 mm 2 mps 677 mmHg 30%
01:00 +13°C° 0 mm 2 mps 677 mmHg 31%
02:00 +13°C° 0 mm 2 mps 677 mmHg 32%
03:00 +12°C° 0 mm 2 mps 676 mmHg 33%
04:00 +12°C° 0 mm 2 mps 676 mmHg 35%
05:00 +14°C° 0 mm 2 mps 677 mmHg 32%
06:00 +15°C° 0 mm 1 mps 678 mmHg 28%
07:00 +18°C° 0 mm 1 mps 679 mmHg 25%
08:00 +21°C° 0 mm 1 mps 679 mmHg 21%
09:00 +24°C° 0 mm 1 mps 679 mmHg 18%
10:00 +26°C° 0 mm 2 mps 680 mmHg 14%
11:00 +28°C° 0 mm 3 mps 680 mmHg 13%
12:00 +29°C° 0 mm 4 mps 680 mmHg 12%
13:00 +32°C° 0 mm 5 mps 680 mmHg 11%
14:00 +30°C° 0 mm 6 mps 679 mmHg 11%
15:00 +29°C° 0 mm 7 mps 679 mmHg 12%
16:00 +29°C° 0 mm 8 mps 679 mmHg 12%
17:00 +26°C° 0 mm 7 mps 679 mmHg 15%
18:00 +22°C° 0 mm 6 mps 679 mmHg 17%
19:00 +17°C° 0 mm 5 mps 679 mmHg 20%
20:00 +18°C° 0 mm 4 mps 679 mmHg 21%
21:00 +17°C° 0 mm 4 mps 679 mmHg 22%
22:00 +16°C° 0 mm 3 mps 679 mmHg 23%
23:00 +14°C° 0 mm 3 mps 679 mmHg 23%

Tomorrow, 28 September, Monday

Time Temperature Precipitation Wind Pressure Humidity
00:00 +14°C° 0 mm 3 mps 678 mmHg 24%
01:00 +14°C° 0 mm 2 mps 678 mmHg 25%
02:00 +14°C° 0 mm 2 mps 678 mmHg 25%
03:00 +13°C° 0 mm 2 mps 678 mmHg 26%
04:00 +13°C° 0 mm 2 mps 678 mmHg 26%
05:00 +13°C° 0 mm 3 mps 679 mmHg 24%
06:00 +16°C° 0 mm 3 mps 680 mmHg 22%
07:00 +17°C° 0 mm 3 mps 681 mmHg 20%
08:00 +19°C° 0 mm 3 mps 681 mmHg 18%
09:00 +21°C° 0 mm 4 mps 682 mmHg 16%
10:00 +25°C° 0 mm 4 mps 682 mmHg 13%
11:00 +26°C° 0 mm 5 mps 682 mmHg 13%
12:00 +27°C° 0 mm 5 mps 682 mmHg 12%
13:00 +28°C° 0 mm 6 mps 681 mmHg 11%
14:00 +27°C° 0 mm 7 mps 681 mmHg 12%
15:00 +26°C° 0 mm 9 mps 681 mmHg 12%
16:00 +24°C° 0 mm 10 mps 681 mmHg 12%
17:00 +21°C° 0 mm 9 mps 681 mmHg 14%
18:00 +18°C° 0 mm 8 mps 681 mmHg 16%
19:00 +15°C° 0 mm 8 mps 681 mmHg 18%
20:00 +14°C° 0 mm 7 mps 681 mmHg 22%
21:00 +13°C° 0 mm 6 mps 681 mmHg 26%
22:00 +12°C° 0 mm 5 mps 681 mmHg 30%
23:00 +10°C° 0 mm 5 mps 681 mmHg 32%

Day after tomorrow, 29 September, Tuesday

Time Temperature Precipitation Wind Pressure Humidity
00:00 +10°C° 0 mm 4 mps 680 mmHg 33%
01:00 +8°C° 0 mm 4 mps 680 mmHg 35%
02:00 +8°C° 0 mm 4 mps 680 mmHg 36%
03:00 +8°C° 0 mm 3 mps 679 mmHg 36%
04:00 +8°C° 0 mm 3 mps 679 mmHg 37%
05:00 +9°C° 0 mm 3 mps 680 mmHg 35%
06:00 +8°C° 0 mm 4 mps 680 mmHg 34%
07:00 +10°C° 0 mm 4 mps 681 mmHg 33%
08:00 +12°C° 0 mm 4 mps 681 mmHg 29%
09:00 +14°C° 0 mm 5 mps 681 mmHg 26%
10:00 +16°C° 0 mm 5 mps 682 mmHg 23%
11:00 +17°C° 0 mm 6 mps 682 mmHg 23%
12:00 +18°C° 0 mm 7 mps 681 mmHg 23%
13:00 +20°C° 0 mm 8 mps 681 mmHg 23%
14:00 +18°C° 0 mm 9 mps 681 mmHg 23%
15:00 +18°C° 0 mm 10 mps 681 mmHg 23%
16:00 +17°C° 0 mm 10 mps 680 mmHg 23%
17:00 +15°C° 0 mm 9 mps 680 mmHg 24%
18:00 +12°C° 0 mm 8 mps 681 mmHg 25%
19:00 +10°C° 0 mm 7 mps 681 mmHg 26%
20:00 +9°C° 0 mm 6 mps 681 mmHg 29%
21:00 +8°C° 0 mm 5 mps 681 mmHg 31%
22:00 +6°C° 0 mm 4 mps 680 mmHg 33%
23:00 +7°C° 0 mm 3 mps 680 mmHg 34%

30 September, Wednesday

Time Temperature Precipitation Wind Pressure Humidity
00:00 +5°C° 0 mm 3 mps 680 mmHg 36%
01:00 +4°C° 0 mm 3 mps 679 mmHg 38%
02:00 +4°C° 0 mm 3 mps 679 mmHg 39%
03:00 +4°C° 0 mm 3 mps 679 mmHg 40%
04:00 +4°C° 0 mm 2 mps 679 mmHg 42%
05:00 +5°C° 0 mm 2 mps 679 mmHg 38%
06:00 +7°C° 0 mm 2 mps 680 mmHg 35%
07:00 +8°C° 0 mm 2 mps 680 mmHg 32%
08:00 +12°C° 0 mm 2 mps 681 mmHg 27%
09:00 +14°C° 0 mm 2 mps 681 mmHg 23%
10:00 +17°C° 0 mm 2 mps 681 mmHg 19%
11:00 +18°C° 0 mm 2 mps 681 mmHg 16%
12:00 +20°C° 0 mm 3 mps 680 mmHg 13%
13:00 +22°C° 0 mm 3 mps 680 mmHg 11%
14:00 +22°C° 0 mm 4 mps 680 mmHg 11%
15:00 +22°C° 0 mm 5 mps 680 mmHg 11%
16:00 +22°C° 0 mm 5 mps 679 mmHg 11%
17:00 +17°C° 0 mm 5 mps 679 mmHg 16%
18:00 +14°C° 0 mm 4 mps 678 mmHg 20%
19:00 +10°C° 0 mm 3 mps 678 mmHg 25%
20:00 +10°C° 0 mm 3 mps 678 mmHg 26%
21:00 +9°C° 0 mm 3 mps 678 mmHg 28%
22:00 +8°C° 0 mm 2 mps 678 mmHg 29%
23:00 +8°C° 0 mm 2 mps 677 mmHg 32%

1 October, Thursday

Time Temperature Precipitation Wind Pressure Humidity
00:00 +7°C° 0 mm 2 mps 677 mmHg 35%
01:00 +8°C° 0 mm 1 mps 677 mmHg 37%
02:00 +7°C° 0 mm 1 mps 676 mmHg 42%
03:00 +6°C° 0 mm 1 mps 676 mmHg 46%
04:00 +6°C° 0 mm 1 mps 676 mmHg 51%
05:00 +7°C° 0 mm 0 mps 677 mmHg 41%
06:00 +9°C° 0 mm 0 mps 678 mmHg 32%
07:00 +11°C° 0 mm 0 mps 679 mmHg 23%
08:00 +15°C° 0 mm 1 mps 679 mmHg 19%
09:00 +18°C° 0 mm 1 mps 680 mmHg 16%
10:00 +21°C° 0 mm 1 mps 680 mmHg 12%
11:00 +23°C° 0 mm 2 mps 680 mmHg 10%
12:00 +24°C° 0 mm 3 mps 680 mmHg 8%
13:00 +26°C° 0 mm 3 mps 680 mmHg 6%
14:00 +26°C° 0 mm 4 mps 680 mmHg 7%
15:00 +26°C° 0 mm 4 mps 680 mmHg 7%
16:00 +26°C° 0 mm 5 mps 680 mmHg 7%
17:00 +21°C° 0 mm 4 mps 679 mmHg 11%
18:00 +18°C° 0 mm 3 mps 679 mmHg 14%
19:00 +13°C° 0 mm 3 mps 678 mmHg 17%
20:00 +13°C° 0 mm 3 mps 678 mmHg 18%
21:00 +12°C° 0 mm 3 mps 678 mmHg 19%
22:00 +12°C° 0 mm 2 mps 678 mmHg 20%
23:00 +12°C° 0 mm 2 mps 678 mmHg 22%

2 October, Friday

Time Temperature Precipitation Wind Pressure Humidity
00:00 +10°C° 0 mm 2 mps 678 mmHg 23%
01:00 +10°C° 0 mm 2 mps 678 mmHg 24%
02:00 +10°C° 0 mm 1 mps 677 mmHg 25%
03:00 +10°C° 0 mm 1 mps 677 mmHg 25%
04:00 +10°C° 0 mm 1 mps 677 mmHg 25%
05:00 +11°C° 0 mm 1 mps 678 mmHg 22%
06:00 +13°C° 0 mm 1 mps 679 mmHg 19%
07:00 +14°C° 0 mm 0 mps 679 mmHg 16%
08:00 +19°C° 0 mm 1 mps 680 mmHg 14%
09:00 +21°C° 0 mm 1 mps 680 mmHg 11%
10:00 +24°C° 0 mm 1 mps 681 mmHg 9%
11:00 +25°C° 0 mm 2 mps 681 mmHg 8%
12:00 +27°C° 0 mm 3 mps 680 mmHg 8%
13:00 +29°C° 0 mm 4 mps 680 mmHg 7%
14:00 +28°C° 0 mm 4 mps 680 mmHg 7%
15:00 +28°C° 0 mm 5 mps 680 mmHg 8%
16:00 +28°C° 0 mm 6 mps 680 mmHg 8%
17:00 +25°C° 0 mm 5 mps 679 mmHg 10%
18:00 +21°C° 0 mm 4 mps 679 mmHg 12%
19:00 +18°C° 0 mm 3 mps 679 mmHg 14%
20:00 +17°C° 0 mm 3 mps 679 mmHg 15%
21:00 +16°C° 0 mm 2 mps 679 mmHg 15%
22:00 +15°C° 0 mm 2 mps 679 mmHg 16%
23:00 +14°C° 0 mm 2 mps 679 mmHg 16%
Show more